Location: Borgo
(42.3939°N, 9.2791°E)
Time: 20:46:32
(UTC+00:00)

Cosmos 1626 Rocket - Pass Details

Date: 24 January 2021
Orbit: 603 x 631 km, 82.5° (Epoch: 02 March)

Event Time Altitude Azimuth Distance (km) Brightness Sun altitude
Rises 17:13:23 0° 171° (S) 2,868 7.1 -8.8°
Reaches altitude 10° 17:15:38 10° 165° (SSE) 1,973 6.2 -9.2°
Maximum altitude 17:19:49 46° 93° (E) 839 3.8 -10.0°
Drops below altitude 10° 17:24:04 10° 20° (NNE) 2,005 5.8 -10.7°
Sets 17:26:22 0° 15° (NNE) 2,920 6.7 -11.1°
